Weather History for Greenville/Spartanburg, SC

Change the Weather History Date:

Wednesday, July 17, 2013

  Actual Average Record
Temperature  
Mean Temperature 81 °F 80 °F  
Max Temperature 92 °F 91 °F 103 °F (1887)
Min Temperature 69 °F 70 °F 60 °F (1886)
Degree Days  
Heating Degree Days 0 0  
Month to date heating degree days 0 0  
Since 1 June heating degree days 0 2  
Since 1 July heating degree days 0 0  
Cooling Degree Days 16 15  
Month to date cooling degree days 207 253  
Year to date cooling degree days 716 805  
Since 1 June cooling degree days 554 604  
Growing Degree Days 30 (Base 50)    
Moisture  
Dew Point 70 °F    
Average Humidity 75    
Maximum Humidity 100    
Minimum Humidity 49    
Precipitation  
Precipitation 0.64 in 0.17 in 2.39 in (1911)
Month to date precipitation 11.91 2.51  
Year to date precipitation 44.50 25.74  
Snow  
Snow 0.00 in 0.00 in 0.00 in ()
Month to date snowfall 0.0 0.0  
Since 1 June snowfall 0.0 0.0  
Since 1 July snowfall 0.0 0.0  
Snow Depth 0.00 in    
Sea Level Pressure  
Sea Level Pressure 30.20 in    
Wind  
Wind Speed 4 mph (NE)    
Max Wind Speed 30 mph    
Max Gust Speed 45 mph    
Visibility 8 miles    
Events Rain , Thunderstorm    
T = Trace of Precipitation, MM = Missing Value Source: NWS Daily Summary

Daily Weather History Graph

Daily Weather History Graph

Search for Another Location

Airport:

Trip Planner

Search our weather history database for the weather conditions in past years. The results will help you decide how hot, cold, wet, or windy it might be!

Date:

Astronomy

Jul. 17, 2013 Rise Set
Actual Time 6:28 AM EDT 8:41 PM EDT
Civil Twilight 5:59 AM EDT 9:10 PM EDT
Nautical Twilight 5:23 AM EDT 9:45 PM EDT
Astronomical Twilight 4:45 AM EDT 10:23 PM EDT
Moon 3:32 PM EDT (7/17) 1:29 AM EDT (7/17)
Length of Visible Light 15h 11m
Length of Day
14h 13m
Waxing Gibbous, 67% of the Moon is Illuminated
Jul 17
Waxing Gibbous
Jul 22
Full
Jul 29
Last Quarter
Aug 6
New
Aug 14
First Quarter

Hourly Weather History & Observations

Time (EDT) Temp. Heat Index Dew Point Humidity Pressure Visibility Wind Dir Wind Speed Gust Speed Precip Events Conditions
12:53 AM 73.9 °F - 72.0 °F 93% 30.22 in 10.0 mi West 3.5 mph - N/A   Clear
1:53 AM 73.9 °F - 72.0 °F 93% 30.21 in 10.0 mi Calm Calm - N/A   Clear
2:53 AM 73.0 °F - 71.1 °F 93% 30.20 in 10.0 mi Calm Calm - N/A   Clear
3:53 AM 73.9 °F - 71.1 °F 91% 30.20 in 10.0 mi West 4.6 mph - N/A   Clear
4:53 AM 72.0 °F - 71.1 °F 97% 30.20 in 9.0 mi Calm Calm - N/A   Clear
5:53 AM 73.0 °F - 71.1 °F 93% 30.22 in 10.0 mi Calm Calm - N/A   Clear
6:53 AM 73.9 °F - 71.1 °F 91% 30.22 in 9.0 mi Calm Calm - N/A   Clear
7:53 AM 77.0 °F - 71.1 °F 82% 30.23 in 10.0 mi Calm Calm - N/A   Partly Cloudy
8:53 AM 81.0 °F 85.8 °F 73.0 °F 77% 30.24 in 10.0 mi North 3.5 mph - N/A   Clear
9:53 AM 84.0 °F 89.0 °F 71.1 °F 65% 30.23 in 10.0 mi Calm Calm - N/A   Scattered Clouds
10:53 AM 84.9 °F 89.4 °F 70.0 °F 61% 30.23 in 10.0 mi NNE 5.8 mph - N/A   Clear
11:53 AM 88.0 °F 92.9 °F 70.0 °F 55% 30.23 in 10.0 mi ENE 9.2 mph - N/A   Clear
12:53 PM 88.0 °F 93.8 °F 71.1 °F 57% 30.22 in 10.0 mi NE 6.9 mph - N/A   Clear
1:53 PM 89.1 °F 95.0 °F 71.1 °F 55% 30.19 in 10.0 mi ENE 6.9 mph - N/A   Clear
2:53 PM 91.0 °F 98.2 °F 72.0 °F 53% 30.16 in 10.0 mi NE 5.8 mph - N/A   Clear
3:53 PM 91.9 °F 98.4 °F 71.1 °F 50% 30.13 in 10.0 mi NE 5.8 mph - N/A   Clear
4:53 PM 91.0 °F 95.6 °F 69.1 °F 48% 30.12 in 10.0 mi NE 4.6 mph - N/A   Clear
5:53 PM 89.1 °F 97.0 °F 73.0 °F 59% 30.14 in 10.0 mi NNE 3.5 mph - N/A   Partly Cloudy
6:06 PM 87.8 °F 95.6 °F 73.4 °F 62% 30.15 in 10.0 mi NE 4.6 mph - N/A Thunderstorm Thunderstorm
6:26 PM 80.6 °F 83.2 °F 68.0 °F 65% 30.21 in 1.8 mi North 27.6 mph 44.9 mph N/A Thunderstorm Unknown
6:36 PM 73.4 °F - 66.2 °F 78% 30.26 in 3.0 mi ENE 25.3 mph 39.1 mph 0.00 in Rain , Thunderstorm Thunderstorms and Rain
6:41 PM 71.6 °F - 66.2 °F 83% 30.27 in 1.8 mi ENE 21.9 mph 38.0 mph 0.07 in Rain , Thunderstorm Heavy Thunderstorms and Rain
6:53 PM 70.0 °F - 66.9 °F 90% 30.25 in 1.8 mi Variable 3.5 mph 17.3 mph 0.35 in Rain , Thunderstorm Heavy Thunderstorms and Rain
7:00 PM 69.8 °F - 66.2 °F 88% 30.25 in 2.5 mi North 3.5 mph - 0.06 in Rain , Thunderstorm Heavy Thunderstorms and Rain
7:17 PM 69.8 °F - 66.2 °F 88% 30.22 in 5.0 mi ENE 8.1 mph - 0.15 in Rain , Thunderstorm Light Thunderstorms and Rain
7:42 PM 69.8 °F - 68.0 °F 94% 30.22 in 7.0 mi SE 5.8 mph - 0.17 in Rain Light Rain
7:53 PM 69.1 °F - 68.0 °F 96% 30.19 in 5.0 mi Variable 4.6 mph - 0.18 in Rain Rain
8:53 PM 70.0 °F - 69.1 °F 97% 30.17 in 5.0 mi SW 3.5 mph - 0.10 in Rain Light Rain
9:53 PM 70.0 °F - 68.0 °F 93% 30.16 in 10.0 mi Calm Calm - 0.01 in   Clear
10:53 PM 70.0 °F - 69.1 °F 97% 30.17 in 8.0 mi SSW 5.8 mph - N/A   Mostly Cloudy
11:53 PM 70.0 °F - 69.1 °F 97% 30.18 in 4.0 mi WSW 3.5 mph - N/A   Mostly Cloudy